Domov               UVHVVR             MKGP            O straneh              
ZDRAVSTVENO VARSTVO RASTLIN
  MREŽA AGROMET. POSTAJ
 ► PROGNOSTIČNA OBVESTILA
AGROMETEOROLOŠKI PODATKI -
ARSO
OBVLADOVANJE TVEGANJ ZARADI
NEUGODNIH VREMENSKIH RAZMER
  ► NARAVNE NESREČE
  ► SUŠA/MOČA
  ► NAMAKANJE
  ► ŽLED (gozdarstvo)
KARTOGRAFSKI PRIKAZI
SPLETNE POVEZAVE
PROJEKTI IN PUBLIKACIJE

AGROMETEOROLOŠKA MREŽA: VREMENSKE POSTAJE IN FENOLOŠKA OPAZOVANJA

Pregled podatkov za lokacijo Purisima, meteorološka postaja 863702

Pregled senzorjev na lokaciji

ID Ime Zadnja
vrednost
Datum
zadnje
spremembe
Tip
senzorja
4190 Temperatura 2 m (°C) 4,34 °C 16.12.2017 19:15 50YA
4191 Relativna vlaga 2 m (% RH) 72,56 % RH 16.12.2017 19:15 50YA
4192 Omočenost lista (U) 0 U 16.12.2017 19:15 A730WET
4193 Padavine (mm) 0 mm 16.12.2017 19:15 Rain-O-Matic
4214 Temperatura tal 5 cm (°C) 6,8 °C 16.12.2017 19:15 Generic -20 - +40 °C

Pregled podatkov zadnjih 24 ur

Zap.
št.
Datum in čas Purisima
Omočenost
lista
Padavine Relativna
vlaga
2
m
Temperatura
2
m
Temperatura
tal
5
cm
0 16.12.2017 19:30 0 0 72,56 4,34 6,8
1 16.12.2017 19:00 0 0 73,26 4,34 6,91
2 16.12.2017 18:30 0 0 66,5 5,58 7,01
3 16.12.2017 18:00 0 0 71,68 4,75 7,07
4 16.12.2017 17:30 0 0 64,16 6,29 7,22
5 16.12.2017 17:00 0 0 65,16 6,41 7,29
6 16.12.2017 16:30 0 0 60,03 7,08 7,34
7 16.12.2017 16:00 0 0 59,46 7,43 7,39
8 16.12.2017 15:30 0 0 57,17 8,15 7,44
9 16.12.2017 15:00 0 0 57,77 8,13 7,53
10 16.12.2017 14:30 0 0 58,15 8,19 7,65
11 16.12.2017 14:00 0 0 57,87 7,88 7,86
12 16.12.2017 13:30 0 0 59,96 7,82 7,9
13 16.12.2017 13:00 0 0 59,97 7,78 7,7
14 16.12.2017 12:30 0 0 60,13 7,7 7,26
15 16.12.2017 12:00 0 0 61,13 7,41 7,19
16 16.12.2017 11:30 0 0 64,24 7,18 7,13
17 16.12.2017 11:00 0 0 65,69 6,99 7
18 16.12.2017 10:30 0 0 67,29 6,85 6,99
19 16.12.2017 10:00 0 0 70,18 6,51 6,96
20 16.12.2017 09:30 0,5 0 71,26 6,21 6,93
21 16.12.2017 09:00 2,5 0 71,79 6,05 6,95
22 16.12.2017 08:30 9,5 0 73,26 5,79 6,93
23 16.12.2017 08:00 10 0 75,77 5,49 6,92
24 16.12.2017 07:30 10 0 77,4 5,29 6,87
25 16.12.2017 07:00 10 0 79,15 5,15 6,91
26 16.12.2017 06:30 10 0 77,55 5,33 6,92
27 16.12.2017 06:00 10 0,2 76,73 5,44 7,05
28 16.12.2017 05:30 10 0 76,81 5,44 7,02
29 16.12.2017 05:00 5 0 78,38 5,4 7,01
30 16.12.2017 04:30 6 0 74,8 5,76 6,98
31 16.12.2017 04:00 8 0 73,78 5,91 6,96
32 16.12.2017 03:30 9 0 76,09 5,67 6,88
33 16.12.2017 03:00 9 0 78,96 5,38 6,82
34 16.12.2017 02:30 8 0 82,09 5,09 6,75
35 16.12.2017 02:00 4 0 80,52 5,28 6,74
36 16.12.2017 01:30 4 0,4 86,02 4,67 6,79
37 16.12.2017 01:00 2 0,4 88,09 4,46 6,84
38 16.12.2017 00:30 3 0,8 87,61 4,65 7,05
39 16.12.2017 00:00 2 0,6 85,6 4,92 7,14
40 15.12.2017 23:30 2 2 88,08 4,66 7,76
41 15.12.2017 23:00 3 0,6 84,71 5,13 7,97
42 15.12.2017 22:30 3 0 80,12 5,98 8,06
43 15.12.2017 22:00 6 0 82,7 6,56 8,22
44 15.12.2017 21:30 9 0 93,64 9,19 10,3
45 15.12.2017 21:00 5 0,4 96,81 9,05 9,04
46 15.12.2017 20:30 4 2,6 94,66 8,24 8,94
47 15.12.2017 20:00 9 2 93,78 9,65 9,48
© 2011 Ministrstvo za kmetijstvo, gozdarstvo in prehrano. Vse pravice pridržane.